Location: Alsip
(41.6689°N, 87.7387°W)
Time: 15:01:24
(UTC+00:00)

Cosmos 405 Rocket - Pass Details

Date: 14 July 2020
Orbit: 489 x 554 km, 81.3° (Epoch: 13 August)

Event Time Altitude Azimuth Distance (km) Brightness Sun altitude
Exits shadow 07:13:04 61° 14° (NNE) 586 3.1 -24.3°
Drops below altitude 10° 07:16:14 10° 10° (N) 1,725 6.4 -24.1°
Sets 07:18:21 0° 10° (N) 2,605 7.6 -24.0°
